Bellefontaine, OH

5:07 PM EST on December 04, 2016 (GMT -0500)
Bellefontaine

Weather History for KEDJ - November, 2012

Change the Weather History Date:

Thursday, November 22, 2012

  Actual Average (KDAY) Record (KDAY)
Temperature  
Mean Temperature 50 °F 40 °F  
Max Temperature 60 °F 48 °F 74 °F (1900)
Min Temperature 39 °F 32 °F 8 °F (1964)
Degree Days  
Heating Degree Days 16 25  
Month to date heating degree days 448  
Since 1 July heating degree days 895  
Cooling Degree Days 0 0  
Month to date cooling degree days 0  
Year to date cooling degree days 891  
Moisture  
Dew Point 39 °F    
Average Humidity 69    
Maximum Humidity 93    
Minimum Humidity 45    
Precipitation  
Precipitation 0.00 in 0.13 in 1.54 in (1920)
Month to date precipitation 2.47  
Year to date precipitation 37.01  
Snow  
Snow 0.00 in 0.00 in 0.80 in (1967)
Month to date snowfall 0.3  
Since 1 July snowfall 0.7  
Since 1 September snowfall 0.7  
Snow Depth -    
Sea Level Pressure  
Sea Level Pressure 30.09 in    
Wind  
Wind Speed 9 mph (SSE)    
Max Wind Speed 20 mph    
Max Gust Speed 25 mph    
Visibility 10 miles    
Events      
T = Trace of Precipitation, MM = Missing Value Source: NWS Daily Summary

Daily Weather History Graph

Daily Weather History Graph

Search for Another Location

Airport or City:

Trip Planner

Search our weather history database for the weather conditions in past years. The results will help you decide how hot, cold, wet, or windy it might be!

Date:

Astronomy

Nov. 22, 2012 Rise Set
Actual Time 7:29 AM EST 5:12 PM EST
Civil Twilight 7:00 AM EST 5:42 PM EST
Nautical Twilight 6:26 AM EST 6:16 PM EST
Astronomical Twilight 5:54 AM EST 6:48 PM EST
Moon 1:58 PM EST (11/22) 1:47 AM EST (11/22)
Length of Visible Light 10h 42m
Length of Day
9h 43m
Waxing Gibbous, 71% of the Moon is Illuminated
Nov 22
Waxing Gibbous
Nov 28
Full
Dec 6
Last Quarter
Dec 13
New
Dec 20
First Quarter

Hourly Weather History & Observations

Time (EST) Temp. Windchill Dew Point Humidity Pressure Visibility Wind Dir Wind Speed Gust Speed Precip Events Conditions
12:10 AM 42.8 °F 39.3 °F 37.4 °F 81% 30.19 in 10.0 mi SSE 5.8 mph - 0.00 in   Clear
12:30 AM 42.8 °F 39.3 °F 37.4 °F 81% 30.18 in 10.0 mi SE 5.8 mph - 0.00 in   Clear
12:50 AM 42.8 °F 38.6 °F 37.4 °F 81% 30.18 in 10.0 mi SSE 6.9 mph - 0.00 in   Clear
1:10 AM 42.8 °F 38.6 °F 37.4 °F 81% 30.18 in 10.0 mi SE 6.9 mph - 0.00 in   Clear
1:30 AM 42.8 °F 39.3 °F 37.4 °F 81% 30.18 in 10.0 mi SSE 5.8 mph - 0.00 in   Clear
1:50 AM 42.8 °F 38.6 °F 37.4 °F 81% 30.18 in 10.0 mi SE 6.9 mph - 0.00 in   Clear
2:10 AM 42.8 °F 38.6 °F 37.4 °F 81% 30.18 in 10.0 mi SSE 6.9 mph - 0.00 in   Clear
2:30 AM 42.8 °F 38.6 °F 37.4 °F 81% 30.18 in 10.0 mi SE 6.9 mph - 0.00 in   Clear
2:50 AM 41.0 °F 36.4 °F 37.4 °F 87% 30.18 in 10.0 mi SE 6.9 mph - 0.00 in   Clear
3:10 AM 41.0 °F 36.4 °F 37.4 °F 87% 30.18 in 9.0 mi SE 6.9 mph - 0.00 in   Clear
3:30 AM 41.0 °F 37.1 °F 37.4 °F 87% 30.17 in 9.0 mi SE 5.8 mph - 0.00 in   Clear
3:50 AM 39.2 °F 33.6 °F 37.4 °F 93% 30.17 in 8.0 mi SE 8.1 mph - 0.00 in   Clear
4:10 AM 41.0 °F 35.8 °F 37.4 °F 87% 30.17 in 8.0 mi SE 8.1 mph - 0.00 in   Clear
4:30 AM 41.0 °F 36.4 °F 37.4 °F 87% 30.17 in 8.0 mi SE 6.9 mph - 0.00 in   Clear
4:50 AM 41.0 °F 36.4 °F 37.4 °F 87% 30.17 in 9.0 mi SE 6.9 mph - 0.00 in   Clear
5:10 AM 41.0 °F 36.4 °F 37.4 °F 87% 30.17 in 9.0 mi SE 6.9 mph - 0.00 in   Clear
5:30 AM 39.2 °F 34.2 °F 37.4 °F 93% 30.17 in 8.0 mi SE 6.9 mph - 0.00 in   Clear
5:50 AM 39.2 °F 33.6 °F 35.6 °F 87% 30.17 in 8.0 mi SE 8.1 mph - 0.00 in   Clear
6:10 AM 39.2 °F 33.0 °F 35.6 °F 87% 30.17 in 8.0 mi SE 9.2 mph - 0.00 in   Clear
6:30 AM 39.2 °F 33.0 °F 35.6 °F 87% 30.17 in 9.0 mi SSE 9.2 mph - 0.00 in   Clear
6:50 AM 39.2 °F 33.0 °F 35.6 °F 87% 30.17 in 9.0 mi SE 9.2 mph - 0.00 in   Clear
7:10 AM 39.2 °F 33.6 °F 35.6 °F 87% 30.17 in 9.0 mi SSE 8.1 mph - 0.00 in   Clear
7:30 AM 39.2 °F 33.0 °F 35.6 °F 87% 30.17 in 7.0 mi SSE 9.2 mph - 0.00 in   Clear
7:50 AM 39.2 °F 33.0 °F 35.6 °F 87% 30.17 in 7.0 mi SSE 9.2 mph - 0.00 in   Clear
8:10 AM 39.2 °F 33.0 °F 35.6 °F 87% 30.17 in 8.0 mi SSE 9.2 mph - 0.00 in   Clear
8:30 AM 42.8 °F 37.0 °F 37.4 °F 81% 30.17 in 10.0 mi SSE 10.4 mph - 0.00 in   Clear
8:50 AM 44.6 °F 39.2 °F 37.4 °F 76% 30.17 in 10.0 mi South 10.4 mph - 0.00 in   Clear
9:10 AM 44.6 °F 39.2 °F 37.4 °F 76% 30.17 in 10.0 mi South 10.4 mph - 0.00 in   Clear
9:30 AM 46.4 °F 41.9 °F 39.2 °F 76% 30.17 in 10.0 mi South 9.2 mph - 0.00 in   Clear
9:50 AM 48.2 °F - 39.2 °F 71% 30.17 in 10.0 mi South 8.1 mph - 0.00 in   Clear
10:10 AM 50.0 °F - 39.2 °F 66% 30.17 in 10.0 mi South 9.2 mph - 0.00 in   Clear
10:30 AM 51.8 °F - 41.0 °F 67% 30.16 in 10.0 mi South 10.4 mph - 0.00 in   Clear
10:50 AM 53.6 °F - 41.0 °F 62% 30.15 in 10.0 mi South 15.0 mph - 0.00 in   Clear
11:10 AM 55.4 °F - 41.0 °F 58% 30.14 in 10.0 mi South 11.5 mph - 0.00 in   Clear
11:30 AM 55.4 °F - 39.2 °F 54% 30.13 in 10.0 mi South 16.1 mph - 0.00 in   Clear
11:50 AM 57.2 °F - 39.2 °F 51% 30.12 in 10.0 mi South 17.3 mph 21.9 mph 0.00 in   Clear
12:10 PM 59.0 °F - 41.0 °F 51% 30.11 in 10.0 mi SSW 15.0 mph - 0.00 in   Clear
12:30 PM 59.0 °F - 41.0 °F 51% 30.10 in 10.0 mi South 15.0 mph - 0.00 in   Clear
12:50 PM 59.0 °F - 41.0 °F 51% 30.09 in 10.0 mi South 17.3 mph 25.3 mph 0.00 in   Clear
1:10 PM 60.8 °F - 41.0 °F 48% 30.08 in 10.0 mi SSW 17.3 mph 23.0 mph 0.00 in   Clear
1:30 PM 60.8 °F - 41.0 °F 48% 30.07 in 10.0 mi SSW 19.6 mph 25.3 mph 0.00 in   Clear
1:50 PM 60.8 °F - 41.0 °F 48% 30.07 in 10.0 mi SSW 16.1 mph - 0.00 in   Clear
2:10 PM 60.8 °F - 39.2 °F 45% 30.06 in 10.0 mi SSW 17.3 mph - 0.00 in   Clear
2:30 PM 60.8 °F - 39.2 °F 45% 30.05 in 10.0 mi SSW 18.4 mph - 0.00 in   Clear
2:50 PM 59.0 °F - 39.2 °F 48% 30.05 in 10.0 mi SSW 11.5 mph - 0.00 in   Clear
3:10 PM 60.8 °F - 39.2 °F 45% 30.04 in 10.0 mi SSW 19.6 mph - 0.00 in   Clear
3:30 PM 60.8 °F - 39.2 °F 45% 30.04 in 10.0 mi SSW 16.1 mph 20.7 mph 0.00 in   Clear
3:50 PM 59.0 °F - 39.2 °F 48% 30.04 in 10.0 mi SSW 16.1 mph - 0.00 in   Clear
4:10 PM 57.2 °F - 39.2 °F 51% 30.04 in 10.0 mi South 11.5 mph - 0.00 in   Clear
4:30 PM 55.4 °F - 39.2 °F 54% 30.04 in 10.0 mi South 11.5 mph - 0.00 in   Clear
4:50 PM 55.4 °F - 39.2 °F 54% 30.03 in 10.0 mi South 9.2 mph - 0.00 in   Clear
5:10 PM 53.6 °F - 39.2 °F 58% 30.03 in 10.0 mi South 9.2 mph - 0.00 in   Clear
5:30 PM 51.8 °F - 39.2 °F 62% 30.02 in 10.0 mi South 10.4 mph - 0.00 in   Clear
5:50 PM 51.8 °F - 39.2 °F 62% 30.01 in 10.0 mi South 11.5 mph - 0.00 in   Clear
6:10 PM 51.8 °F - 39.2 °F 62% 30.01 in 10.0 mi South 9.2 mph - 0.00 in   Clear
6:30 PM 51.8 °F - 39.2 °F 62% 30.00 in 10.0 mi South 9.2 mph - 0.00 in   Clear
6:50 PM 51.8 °F - 39.2 °F 62% 30.00 in 10.0 mi South 10.4 mph - 0.00 in   Clear
7:10 PM 51.8 °F - 39.2 °F 62% 29.99 in 10.0 mi South 11.5 mph - 0.00 in   Clear
7:30 PM 51.8 °F - 39.2 °F 62% 29.99 in 10.0 mi South 11.5 mph - 0.00 in   Partly Cloudy
7:50 PM 51.8 °F - 39.2 °F 62% 29.99 in 10.0 mi SSE 11.5 mph - 0.00 in   Partly Cloudy
8:10 PM 51.8 °F - 39.2 °F 62% 29.99 in 10.0 mi South 11.5 mph - 0.00 in   Clear
8:30 PM 51.8 °F - 39.2 °F 62% 29.99 in 10.0 mi South 9.2 mph - 0.00 in   Partly Cloudy
8:50 PM 50.0 °F - 39.2 °F 66% 29.99 in 10.0 mi South 8.1 mph - 0.00 in   Clear
9:10 PM 50.0 °F - 39.2 °F 66% 29.98 in 10.0 mi SSE 8.1 mph - 0.00 in   Clear
9:30 PM 48.2 °F - 39.2 °F 71% 29.98 in 10.0 mi SSE 9.2 mph - 0.00 in   Clear
9:50 PM 48.2 °F - 39.2 °F 71% 29.97 in 10.0 mi South 10.4 mph - 0.00 in   Clear
10:10 PM 48.2 °F - 39.2 °F 71% 29.96 in 10.0 mi South 11.5 mph - 0.00 in   Clear
10:30 PM 48.2 °F - 39.2 °F 71% 29.95 in 10.0 mi South 12.7 mph - 0.00 in   Clear
10:50 PM 48.2 °F - 39.2 °F 71% 29.95 in 10.0 mi South 12.7 mph - 0.00 in   Clear
11:10 PM 48.2 °F - 39.2 °F 71% 29.94 in 10.0 mi South 12.7 mph - 0.00 in   Clear
11:30 PM 48.2 °F - 39.2 °F 71% 29.94 in 10.0 mi South 11.5 mph - 0.00 in   Clear
11:50 PM 50.0 °F - 39.2 °F 66% 29.94 in 10.0 mi South 12.7 mph - 0.00 in   Clear